Regional Weather Roundup
Issued by NWS

Home | Current Version | Previous Version | Graphics & Text | Print | Product List | Glossary On
Versions: 1 2 3 4 5 6 7 8 9 10 11 12 13 14 15 16 17 18 19 20 21 22 23 24 25 26 27 28 29 30 31 32 33 34 35 36 37 38 39 40 41 42 43 44 45 46 47 48 49 50
000
ASUS45 KCYS 051410
RWRWY

WYOMING REGIONAL WEATHER ROUNDUP
NATIONAL WEATHER SERVICE CHEYENNE WY
800 AM MDT TUE MAY 05 2015

NOTE:  "FAIR" INDICATES FEW OR NO CLOUDS BELOW 12,000 FEET
WITH NO SIGNIFICANT WEATHER AND/OR OBSTRUCTIONS TO VISIBILITY.

WYZ001-051500-
YELLOWSTONE NATIONAL PARK

CITY           SKY/WX    TMP DP  RH WIND       PRES   REMARKS
LK YELLOWSTONE   N/A     37  31  78 CALM      30.03S
W YELLOWSTONE  NOT AVBL

$$
WYZ002>013-054>058-071-098>099-051500-
NORTHERN WYOMING

CITY           SKY/WX    TMP DP  RH WIND       PRES   REMARKS
JACKSON        PTSUNNY   41  36  81 VRB5      29.97R
CODY           FAIR      54  41  62 CALM      29.88R
GREYBULL       FAIR      56  42  59 CALM      29.85R
WORLAND        FAIR      54  44  69 S5        29.86R
SHERIDAN       FAIR      49  43  80 CALM      29.87S
BUFFALO        FAIR      50  44  80 SE12      29.90S
GILLETTE       CLOUDY    47  42  83 S25       29.93S
HULETT         FAIR      52  41  66 N3        29.96R
NEWCASTLE      CLOUDY    50  41  71 SE9       29.99F

$$
WYZ014>020-022>026-101>103-051500-
CENTRAL WYOMING

CITY           SKY/WX    TMP DP  RH WIND       PRES   REMARKS
BIG PINEY      PTSUNNY   44  37  76 CALM      29.99R
PINEDALE       FAIR      41  36  81 NW6       30.00R
DUBOIS         FAIR      41  32  70 NW9       29.97S
LANDER         FAIR      50  39  66 E3        29.92R
RIVERTON       FAIR      50  41  71 CALM      29.93R
CASPER         FOG       42  42 100 SE6       29.94F VSB 1/4
DOUGLAS        CLOUDY    46  44  93 SE18      29.96F FOG

$$
WYZ021-027>030-104>119-051500-
SOUTHERN WYOMING

CITY           SKY/WX    TMP DP  RH WIND       PRES   REMARKS
EVANSTON       CLOUDY    44  37  76 E7        29.97R
KEMMERER       FAIR      43  37  81 N5        29.99R
FORT BRIDGER   PTSUNNY   46  45  93 CALM      30.00S
ROCK SPRINGS   FAIR      44  38  79 NE3       29.96F
DIXON          FAIR      44  37  78 SE5       29.97S
RAWLINS        CLOUDY    41  40  96 CALM      29.97F
SARATOGA       FAIR      37  36  93 CALM      29.98S
LARAMIE        FAIR      45  40  82 S18       29.97F
CHEYENNE       FOG       43  43 100 S10       30.00S VSB 1/4
TORRINGTON     CLOUDY    48  45  89 SE10      29.99S
PINE BLUFFS    CLOUDY    45  45 100 S5        30.01F FOG

$$



USA.gov is the U.S. government's official web portal to all federal, state and local government web resources and services.